Location: Diebersbach
(48.5163°N, 8.0558°E)
Time: 03:50:07
(UTC+00:00)

USA 229 - Pass Details

Date: 25 October 2021
Orbit: 946 x 1266 km, 63.4° (Epoch: 25 November)

Event Time Altitude Azimuth Distance (km) Brightness Sun altitude
Rises 16:41:22 0° 176° (S) 3,623 6.6 -4.3°
Reaches altitude 10° 16:44:19 10° 163° (SSE) 2,707 5.8 -4.7°
Maximum altitude 16:49:16 25° 111° (ESE) 1,916 4.6 -5.5°
Drops below altitude 10° 16:54:28 10° 59° (ENE) 2,858 5.4 -6.4°
Enters shadow 16:56:30 - 51° (NE) 3,489 5.8 -6.7°
